Location: Powder Track
(41.8531°N, 72.3584°W)
Time: 12:48:36
(UTC+00:00)

Vanguard 2 - Visible Passes

Search period start: 02 August 2021 00:00
Search period end: 12 August 2021 00:00
Orbit: 552 x 2937 km, 32.9° (Epoch: 02 August)

Date Brightness Start Highest point End Pass type
(mag) Time Alt. Az. Time Alt. Az. Time Alt. Az.
02 Aug 9.0 08:38:37 10° SSW 08:40:56 15° SSE 08:43:28 10° ESE visible
03 Aug 8.7 08:55:29 10° SSW 08:58:23 19° SSE 09:01:36 10° ESE visible
04 Aug 8.5 09:12:41 10° SW 09:15:51 23° SSE 09:19:30 10° ESE visible
05 Aug 9.4 07:27:28 10° SE 07:27:28 10° SE 07:27:31 10° SE visible
06 Aug 8.9 07:44:14 15° SSE 07:44:14 15° SSE 07:45:56 10° SE visible
07 Aug 8.4 08:01:00 20° SSE 08:01:00 20° SSE 08:03:54 10° ESE visible
08 Aug 8.2 08:17:47 22° S 08:18:28 23° S 08:21:40 10° ESE visible
09 Aug 8.2 08:34:35 20° SSW 08:36:01 24° S 08:39:18 10° SE visible
10 Aug 8.2 08:51:24 15° SW 08:53:34 23° S 08:56:49 10° SE visible
11 Aug 9.5 07:06:50 10° ESE 07:06:50 10° ESE 07:06:53 10° ESE visible
11 Aug 8.3 09:08:15 11° WSW 09:11:06 21° S 09:14:12 10° SE visible
